Погода в Лонгёй

Канада     45°31′42″N   73°28′58″W
темп.,
°C
ветер,
м/с
пор.,
м/с
влажн.,
%
обл.,
%
осадки,
мм/ч
давл.,
гПа
погр.,
м
25 февраля, чт
чт2501:00−1с61296100 9.5 1002846
04:00−3сз41084100 0.8 1010779
07:00−9зсз238889 0.8 101571
10:00−7зсз51084100 0.0 1018715
13:00−6з688067 0.0 1019972
16:00−7з598139 0.0 10201023
19:00−11з369033 0.0 1023122
22:00−12з389263 0.0 1026226
26 февраля, пт
пт2601:00−15з229070 0.0 102622
04:00−17з128918 0.0 102820
07:00−18юз11899 0.0 103020
10:00−10ю23880 0.0 1031291
13:00−5ю258718 0.0 1029503
16:00−4ю359171 0.0 1029417
19:00−7ю339260 0.0 103082
22:00−7ю359385 0.0 102895
27 февраля, сб
сб2701:00−8ю239285 0.0 102867
04:00−7ююв31091100 0.0 1025203
07:00−3ююв51485100 0.0 1022433
10:00−1ююв61397100 2.0 1017472
13:00+1ююв71499100 5.8 1011428
16:00+3ююз517100100 2.8 1008644
19:00+3зюз8199797 4.2 1012888
22:00+2з6138734 0.0 1017728
28 февраля, вс
вс2801:00+1з5128961 0.0 1020634
04:00−2юз239360 0.0 102239
07:00−4ююз229430 0.0 102221
10:000юв1210036 0.0 1021144
13:00+1юв3910069 0.0 1017471
16:00+1юв516100100 0.0 1011680
19:00+2ю81796100 1.0 1006458
22:00+3ююз516100100 1.1 1004512
1 марта, пн
пн101:00+2зюз51496100 1.1 1005735
04:000зюз6148618 0.0 1005759
07:00−3з5138110 0.0 1006554
10:00−4зюз589120 0.0 1006526
13:00−3з578860 0.1 1004869
16:00−3зсз4684100 0.1 1002993
19:00−7ссз61277100 0.2 1003722
22:00−13сз71275100 0.0 10111159